Showing default

HULIANWANG DIGUI-44, 65047

Orbit data source: Space-Track

HULIANWANG DIGUI-44, 65047 is a payload satellite owned by Zhongguo Xingwang (CN) in LEO that was launched on Wed, 30 Jul 2025 UTC via a CHANG ZHENG 8A launch vehicle from the Wenchang Satellite Launch Center (WSC). Payload-class satellites include a variety of spacecraft equipped with specific instruments for various scientific and technological missions. These include communications satellites like Starlink; space stations such as the ISS; scientific satellites like the Hubble; Earth observation satellites from companies like Planet Labs, Umbra, and HawkEye 360; GPS; miniature CubeSats for education and research; and military/defense satellites.

Loading next visibility...
Identifier
65047, 2025-162E
Orbit
LEO
Country
Flag of CNCN / PRC
Related business
Manufacturer
SECM
Mission
Operational Civil Communications
Bus & Motor
GUOWANG S, Unknown motor
Mass
~800 kg wet, ~800 kg dry
Launch date (UTC)
2025-07-30 (4 months ago)
Launch vehicle
CHANG ZHENG 8A
Launch site
Wenchang Satellite Launch Center (WSC)
Object type
Payload
Rocket body
Debris
Shape & HBR
Box + 2 Pan, 14.5 m
Radar Cross Section
5.935 m², Large (>1 m²)

Expand to show TLE details & history
Last TLE update: 14 hours ago

TLE from 14 hours ago
0 HULIANWANG DIGUI-44
1 65047U 25162E   25342.40288106 -.00000049  00000-0  16209-3 0  9998
2 65047  50.0006 229.9913 0001551  48.1636 311.9368 13.29328925 17991
Epoch: 2025-12-08T09:40Z
TLE epoch observation values (Epoch: 2025-12-08T09:40:08.923Z)
Latitude
-0.00005°
Longitude
7.55166°
Altitude
1,149.021 km
Speed
7.28 km/s
True Right ascension
15h 19m 57s
True Declination
0° 00' 00"
Sunlit
Object was in daylight at epoch
Visualization orbit readout
Latitude
Unknown
Longitude
Unknown
Altitude
Unknown
Speed
Unknown
Apparent Right ascension
Unknown
Apparent Declination
Unknown
Sunlit
N/A
Visualization observer readout
Local Sidereal Time
21:54:01
Azimuth
Unknown
Elevation
Unknown
Doppler factor
Unknown
Orbital elements
Apogee altitude
1,151.168 km
Perigee altitude
1,148.833 km
Semi-major axis
7,528.138 km
Eccentricity
0.00016
Inclination
50.0006°
RAAN
229.9913°
Arg. of periapsis
48.1636°
True anomaly
311.92358°
Mean anomaly
311.9368°
Eccentric anomaly
311.93019°
Mean motion
3.32286 °/min
Orbital period
108.34 mins
BSTAR
0.00016209
Loading maneuver chart data...
Computing Atmospheric mass density...
Loading historical data...
Loading historical data...
Loading historical data...
Loading historical data...
Loading historical data...
Loading historical data...
Loading historical data...

Documentation

Showing up to 5 results
|